[[{"header":{"parameterUnit":"m.s-1","parameterCategory":1,"la1":30.2992,"la2":30.254,"lo1":-89.0895,"lo2":-89.0443,"dy":0.0025,"dx":0.0025,"nx":19,"ny":19,"refTime":"2026-05-12T09:00:00:Z","depth":0,"parameterNumber":2,"parameterNumberName":"U-component_of_WINDS"},"data":[0,0,0,2.5217,2.522,2.5383,2.5384,2.5588,2.559,0,0,0,0,0,0,0,0,0,0,0,2.5162,2.5163,2.5217,2.5221,2.5383,2.5384,2.5588,2.559,0,0,0,0,0,0,0,0,0,0,0,2.5162,2.5163,2.5165,2.5221,2.5383,2.5384,2.5587,2.5467,0,0,0,0,0,0,0,0,0,0,2.531,2.5252,2.5163,2.5165,2.5222,2.5383,2.5384,2.5461,2.5474,2.5511,0,2.5539,0,2.5567,2.5603,2.5603,0,0,0,2.5226,2.524,2.529,2.5165,2.5224,2.5383,2.5311,2.5468,2.5483,2.5529,2.5542,2.555,2.5571,2.5604,2.5605,2.5793,2.5794,0,0,2.5217,2.5189,2.528,2.53,2.527,2.5306,2.5316,2.5478,2.5491,2.5543,2.5555,2.5574,2.5605,2.5607,2.5793,2.5794,0,0,0,2.5188,2.5182,2.5228,2.5291,2.532,2.5311,2.5323,2.5484,2.5502,2.5557,2.5576,2.5606,2.5609,2.5792,2.5793,2.5795,0,0,0,2.5183,2.5165,2.5224,2.5208,2.5317,2.5404,2.5325,2.549,2.5509,2.5575,2.5606,2.5611,2.5791,2.5793,2.5794,2.5801,0,0,0,2.5154,2.5162,2.5183,2.5206,2.5275,2.5402,2.5428,2.5495,2.5521,2.5603,2.5611,2.5791,2.5792,2.5792,2.5798,2.5843,0,0,0,2.5116,2.5182,2.5182,2.5265,2.5273,2.5401,2.5428,2.5525,2.5595,2.5607,2.5792,2.5793,2.5792,2.5797,2.5841,2.5873,2.5884,0,0,2.5183,2.5189,2.524,2.5245,2.5365,2.5378,2.5501,2.5593,2.5629,2.5738,2.5743,2.5794,2.5798,2.5842,2.5957,2.5965,0,0,0,2.5252,2.5288,2.5326,2.5391,2.5463,2.5527,2.5604,2.564,2.5733,2.5678,2.5823,2.5827,2.5854,2.5871,2.5878,2.5903,2.58,2.5799,2.5799,2.5304,2.5346,2.5434,2.5496,2.556,2.5641,2.5698,2.576,2.5783,2.5817,2.5849,2.5913,2.5932,2.5938,2.5964,2.5871,2.5871,2.5871,2.5871,2.5407,2.5465,2.5497,2.5593,2.5639,2.5722,2.5805,2.5819,2.5906,2.5892,2.5918,2.5898,2.5945,2.5971,2.5871,2.5871,2.5871,2.5871,2.5871,2.5445,2.5481,2.5523,2.5624,2.5699,2.5762,2.5844,2.5883,2.5921,2.5946,2.5986,2.5986,2.5991,2.5963,2.5963,2.5963,2.5963,2.5964,2.5964,2.5468,2.5515,2.5578,2.5663,2.5712,2.5783,2.5869,2.5919,2.5986,2.6009,2.6009,2.603,2.5942,2.5919,2.5967,2.5967,2.5966,2.5966,2.5966,2.5554,2.5542,2.5638,2.5687,2.5794,2.5867,2.5918,2.6019,2.6067,2.6107,2.6125,2.6053,2.6062,2.6057,2.6038,2.6114,2.6114,2.6114,2.6114,2.5586,2.5595,2.5704,2.5781,2.5862,2.5919,2.6031,2.6101,2.6171,2.6205,2.6201,2.6179,2.6172,2.6186,2.6177,2.616,2.6267,2.6267,2.6267,2.5642,2.5661,2.5746,2.5814,2.5901,2.5977,2.6084,2.6175,2.6253,2.6274,2.6233,2.6226,2.6193,2.6179,2.6195,2.6181,2.6151,0,0]},{"header":{"parameterUnit":"m.s-1","parameterCategory":1,"la1":30.2992,"la2":30.254,"lo1":-89.0895,"lo2":-89.0443,"dy":0.0025,"dx":0.0025,"nx":19,"ny":19,"refTime":"2026-05-12T09:00:00:Z","depth":0,"parameterNumber":3,"parameterNumberName":"V-component_of_WINDS"},"data":[0,0,0,0.3123,0.3129,0.3375,0.3376,0.3698,0.3701,0,0,0,0,0,0,0,0,0,0,0,0.3056,0.3059,0.3123,0.3129,0.3375,0.3376,0.3697,0.3701,0,0,0,0,0,0,0,0,0,0,0,0.3055,0.3058,0.3061,0.313,0.3375,0.3376,0.3696,0.3508,0,0,0,0,0,0,0,0,0,0,0.3268,0.3212,0.3057,0.3061,0.3132,0.3374,0.3376,0.3499,0.352,0.359,0,0.3654,0,0.3682,0.3723,0.3724,0,0,0,0.3125,0.3195,0.3255,0.3061,0.3134,0.3374,0.3263,0.3511,0.3534,0.3618,0.3659,0.367,0.3688,0.3725,0.3727,0.4142,0.4144,0,0,0.3112,0.3104,0.3239,0.3271,0.3234,0.3255,0.3271,0.3525,0.3569,0.366,0.3678,0.3693,0.3727,0.373,0.414,0.4142,0,0,0,0.3075,0.3095,0.3149,0.3258,0.3302,0.3262,0.328,0.3558,0.3576,0.3681,0.3697,0.3729,0.3733,0.4137,0.4141,0.4237,0,0,0,0.3067,0.3073,0.3143,0.3141,0.3297,0.3433,0.3307,0.3558,0.3587,0.3695,0.3729,0.3736,0.4135,0.4139,0.423,0.4285,0,0,0,0.3038,0.307,0.3107,0.314,0.3245,0.3429,0.3462,0.3565,0.3597,0.3724,0.3737,0.4134,0.4138,0.4223,0.4274,0.4391,0,0,0,0.3006,0.3192,0.3109,0.3322,0.3243,0.3487,0.346,0.3643,0.3763,0.3731,0.4135,0.414,0.4221,0.4267,0.4383,0.4488,0.4531,0,0,0.3236,0.3219,0.3345,0.3278,0.3534,0.345,0.372,0.3839,0.3859,0.4046,0.4056,0.4232,0.4273,0.4389,0.4773,0.4807,0,0,0,0.3415,0.3505,0.3575,0.3688,0.3782,0.3866,0.3943,0.3986,0.4145,0.3953,0.4306,0.4331,0.4399,0.445,0.4479,0.4537,0.4163,0.4163,0.4162,0.3731,0.3744,0.3952,0.3994,0.4104,0.418,0.427,0.4341,0.4324,0.4407,0.4463,0.4694,0.4753,0.4775,0.4835,0.4519,0.4519,0.452,0.452,0.4069,0.4198,0.4168,0.4359,0.4371,0.4532,0.461,0.4592,0.4742,0.4654,0.4715,0.4617,0.4811,0.4865,0.4527,0.4526,0.4525,0.4525,0.4524,0.4278,0.4342,0.4389,0.4552,0.4676,0.4711,0.4856,0.4862,0.4869,0.4929,0.4988,0.4986,0.4985,0.4956,0.4957,0.4958,0.4959,0.4959,0.496,0.4476,0.4526,0.4648,0.4759,0.4831,0.4926,0.5,0.5071,0.5151,0.5143,0.5144,0.5117,0.4828,0.4755,0.4972,0.497,0.4968,0.4967,0.4966,0.4815,0.4738,0.4926,0.4997,0.5127,0.5247,0.5252,0.5394,0.5453,0.5523,0.5483,0.5267,0.5251,0.5228,0.5168,0.548,0.548,0.548,0.548,0.4991,0.4982,0.5174,0.5287,0.5398,0.542,0.5629,0.5687,0.5736,0.5772,0.5728,0.5648,0.5624,0.5622,0.559,0.5534,0.5932,0.5933,0.5933,0.52,0.5201,0.538,0.5425,0.5525,0.5611,0.5807,0.5937,0.5976,0.5951,0.5801,0.5782,0.5653,0.561,0.5584,0.5535,0.5432,0,0]}]]